Home   Weather   Cúcuta   Past weeks

Flag for Colombia Past Weather in Cúcuta, Colombia — Yesterday and Last 2 Weeks

Now
84 °F

Partly cloudy.


Feels Like: 91 °F
Forecast: 70 / 103 °F
Wind: 7 mph from Northwest

Location: Cucuta / Camilo Daza

Current Time: Sep 29, 2016 at 10:16:53 PM

Latest Report: Sep 29, 2016 at 9:00 PM


Visibility: N/A

Pressure: 29.84 "Hg

Humidity: 70%

Dew Point: 73 °F

Location of CúcutaLocation

Past Weather in Cúcuta — Graph

°F

Cúcuta Temperature Yesterday

Maximum temperature yesterday: 95 °F (at 2:00 PM)
Minimum temperature yesterday: 77 °F (at 7:00 PM)
Average temperature yesterday: 85 °F

High & Low Weather Summary for the Past Weeks

 TemperatureHumidityPressure
High99 °F (Sep 27, 1:00 PM)89% (Sep 28, 10:00 PM)29.99 "Hg (Sep 28, 10:00 PM)
Low73 °F (Sep 15, 6:00 AM)25% (Sep 27, 2:00 PM)29.73 "Hg (Sep 18, 4:00 PM)
Average87 °F51%29.87 "Hg
* Reported Sep 14 9:00 PM — Sep 29 9:00 PM, Cúcuta, Weather by CustomWeather, © 2016

Note: Actual official high and low records may vary slightly from our data, if they occured in-between our weather recording intervals... More about our weather records

Advertising

Cúcuta Weather History for the Previous 24 Hours

Scroll right to see more
 ConditionsComfort  
Time TempWeatherWind HumidityBarometerVisibility
9:00 PM
Thu, Sep 29
84 °FPartly cloudy.7 mph70%29.84 "HgN/A
8:00 PM84 °FPassing clouds.5 mph70%29.85 "HgN/A
7:00 PM86 °FPassing clouds.8 mph66%29.82 "HgN/A
6:00 PM88 °FPassing clouds.14 mph59%29.79 "HgN/A
5:00 PM90 °FPassing clouds.18 mph59%29.77 "HgN/A
4:00 PM91 °FScattered clouds.15 mph52%29.75 "HgN/A
3:00 PM93 °FScattered clouds.12 mph47%29.76 "HgN/A
2:00 PM93 °FScattered clouds.13 mph44%29.80 "HgN/A
1:00 PM91 °FScattered clouds.12 mph46%29.84 "HgN/A
12:00 PM90 °FScattered clouds.10 mph52%29.90 "HgN/A
11:00 AM88 °FScattered clouds.14 mph52%29.94 "HgN/A
10:00 AM88 °FScattered clouds.15 mph52%29.95 "HgN/A
9:00 AM84 °FPassing clouds.5 mph62%29.93 "HgN/A
8:00 AM82 °FPassing clouds.2 mph66%29.91 "HgN/A
7:00 AM77 °FScattered clouds.2 mph79%29.92 "HgN/A
6:00 AM75 °FScattered clouds.6 mph83%29.92 "HgN/A
5:00 AM75 °FPartly cloudy.3 mph89%29.93 "HgN/A
12:00 AM81 °FPassing clouds.6 mph70%29.91 "HgN/A
11:00 PM
Wed, Sep 28
79 °FPassing clouds.2 mph74%29.94 "HgN/A
10:00 PM77 °FPassing clouds.6 mph89%29.95 "HgN/A
Weather by CustomWeather, © 2016

See weather overviewHow to use our weather pages